Regional Weather Roundup
Issued by NWS Wakefield, VA

Home | Current Version | Previous Version | Graphics & Text | Print | Product List | Glossary On
Versions: 1 2 3 4 5 6 7 8 9 10 11 12 13 14 15 16 17 18 19 20 21 22 23 24 25 26 27 28 29 30 31 32 33 34 35 36 37 38 39 40 41 42 43 44 45 46 47 48 49 50
000
ASUS41 KAKQ 250715
RWRAKQ

REGIONAL WEATHER ROUNDUP
NATIONAL WEATHER SERVICE WAKEFIELD VA
200 AM EST SAT NOV 25 2017

Note: "fair" indicates few or no clouds below 12,000 feet with no
significant weather and/or obstructions to visibility. * = Denotes
station may not report precipitation (e.g., rain,snow,etc.),
thunder or fog.

VAZ042-051-052>054-056-250800-
NORTHERN VIRGINIA

CITY           SKY/WX    TMP DP  RH WIND       PRES   REMARKS
WASH NATIONAL  CLEAR     39  35  86 S8        29.91F
DULLES         CLEAR     37  29  72 S8        29.87F
FORT BELVOIR   CLEAR     30  28  92 CALM      29.91F
QUANTICO       CLEAR     34  33  96 CALM      29.93F
FREDERICKSBRG* CLEAR     32  30  94 CALM      29.91F
STAFFORD*      CLEAR     31  29  94 CALM      29.95F
WARRENTON      NOT AVBL
CULPEPER*      CLOUDY    32  26  80 CALM      29.89F
MANASSAS*      CLOUDY    26  23  88 CALM      29.89F
LEESBURG*      CLOUDY    36  32  87 CALM      29.88F
WINCHESTER     CLOUDY    37  27  65 SW5       29.83F
FRONT ROYAL*   CLOUDY    37  27  65 MISG      29.83F
LURAY*         CLOUDY    32  28  86 CALM      29.85F
$$

VAZ048-049-060>072-079>083-250800-
CENTRAL AND SOUTH CENTRAL VIRGINIA

CITY           SKY/WX    TMP DP  RH WIND       PRES   REMARKS
RICHMOND       CLOUDY    31  28  89 CALM      29.92F
CHESTERFIELD*  NOT AVBL
PETERSBURG*    CLOUDY   N/A N/A N/A CALM      29.94F
HANOVER        CLOUDY    31  29  92 CALM      29.94S
TAPPAHANNOCK*    N/A    N/A N/A N/A MISG        N/A
QUINTON*       FAIR      28  28 100 W3        29.93S
CHARLOTTSVILLE CLOUDY    37  28  70 S7        29.88F
GORDONSVILLE*  CLOUDY    30  28  92 CALM      29.89F
ORANGE*        CLOUDY    32  27  80 CALM      29.89F
LOUISA*        CLOUDY    35  26  68 S5        29.94F
BUMPASS*       FAIR      32  28  86 S6        29.91S
FARMVILLE*     CLOUDY    29  29 100 CALM      29.91S
CREWE*         FAIR      28  28 100 CALM      29.92F
FORT PICKETT*  FAIR      33  31  93 S3        29.93S
CHASE CITY*    FAIR      31  31 100 CALM      29.93S
CLARKSVILLE*   FAIR      28  28 100 CALM      29.93S
SOUTH HILL*    CLOUDY    27  27  99 CALM      29.99S
LAWRENCEVILLE* FAIR      28  28  96 CALM      29.93S
EMPORIA*       CLOUDY    28  28 100 CALM      29.96S
$$

VAZ088>098-250800-
SOUTHEAST VIRGINIA

CITY           SKY/WX    TMP DP  RH WIND       PRES   REMARKS
NORFOLK        CLEAR     37  37 100 CALM      29.92F
VIRGINIA BEACH CLEAR     37  34  89 CALM      29.91F
NORFOLK NAVAL  CLEAR     38  36  92 CALM      29.94F FOG
WEST POINT*    CLOUDY    29  29  96 CALM      29.95F VSB<1/4
SALUDA*        FAIR      31  31 100 CALM      29.93F
NEWPORT NEWS   CLEAR     30  29  96 CALM      29.94S FOG
LANGLEY AFB    CLEAR     33  33  97 CALM      29.92S
FORT EUSTIS    CLEAR     35  32  90 CALM      29.91F
WILLIAMSBURG*  CLEAR     34  32  93 CALM      29.94F
HR EXEC AP*    NOT AVBL
FRANKLIN*      CLOUDY    28  27  95 CALM      29.95S
US460-WAKEFLD  CLOUDY    29  27  92 CALM      29.94F
$$

VAZ020-022-025-037-045-250800-
WEST CENTRAL AND SOUTHWEST VIRGINIA

CITY           SKY/WX    TMP DP  RH WIND       PRES   REMARKS
STAUNTON*      CLOUDY    29  23  79 CALM      29.88F
WAYNESBORO*    CLOUDY    31  25  76 CALM      29.87F
HOT SPRINGS VA CLOUDY    44  22  42 W18       29.85F
LYNCHBURG      CLOUDY    31  26  82 CALM      29.90F
DANVILLE       CLOUDY    28  27  96 CALM      29.92F
SOUTH BOSTON*  FAIR      27  26  95 CALM      29.93F
MARTINSVILLE   PTCLDY    27  25  92 CALM      29.93F
ROANOKE        CLOUDY    36  28  73 CALM      29.91F
BLACKSBURG     CLOUDY    32  28  83 CALM      29.92S
DUBLIN*        CLEAR     39  32  76 CALM      29.91F
MARION*        CLOUDY    33  29  84 CALM      29.93F
HILLSVILLE*    CLEAR     40  32  72 S7        29.89S
RICHLANDS*     FAIR      46  18  32 SW10G16   29.89F
WISE*          CLEAR     45  36  70 SW8       29.90S
ABINGDON*      CLOUDY    38  32  80 CALM      29.92F
$$

MDZ021>025-VAZ099-100-250800-
SOUTHERN MARYLAND AND THE DELMARVA PENINSULA

CITY           SKY/WX    TMP DP  RH WIND       PRES   REMARKS
PATUXENT RIVER CLEAR     34  33  96 SW6       29.92F
BAY BRIDGE APT CLEAR     39  37  93 CALM      29.92F
LEONARDTOWN    CLEAR     34  32  93 CALM      29.94S
DOVER          PTCLDY    35  35 100 S6        29.92F
GEORGETOWN     CLEAR     32  29  88 CALM      29.94R
EASTON         CLEAR     34  32  92 CALM      29.96S
CAMBRIDGE      CLEAR     32  32 100 CALM      29.93S
SALISBURY      CLEAR     30  29  96 CALM      29.93S
OCEAN CITY     CLEAR     30  30 100 NW3       29.93F
WALLOPS ISLAND CLEAR     32  32 100 NW6       29.93F
ACCOMACK*      CLEAR     30  30  98 NW3       29.93S FOG
$$

NCZ012>017-030>032-250800-
NORTH CENTRAL AND EASTERN NORTH CAROLINA

CITY           SKY/WX    TMP DP  RH WIND       PRES   REMARKS
ROANOKE RAPIDS FAIR      30  30 100 CALM      29.95S
RALEIGH        CLOUDY    32  27  81 CALM      29.94F
ELIZABETH CITY MOCLDY    41  41 100 NW3       29.92F
AHOSKIE*       NOT AVBL
EDENTON*       CLEAR     42  40  93 CALM      29.93S
CURRITUCK*     CLEAR     40  40  97 CALM      29.92F
KILL DEVIL HLS CLEAR     55  53  92 CALM      29.89S
MANTEO         CLEAR     50  49  97 N5        29.90S
CAPE HATTERAS  CLEAR     55  55 100 N5        29.88R
TARBORO*       NOT AVBL
GOLDSBORO      CLEAR     37  33  84 CALM      29.93S
WASHINGTON     PTCLDY    40  38  93 CALM      29.93S
GREENVILLE     CLEAR     37  37 100 CALM      29.96S
NEW BERN       PTCLDY    43  42  97 CALM      29.93S
WILMINGTON     PTCLDY    45  40  82 NW5       29.93S
$$

VAZ048-250800-
ELSEWHERE

CITY           SKY/WX    TMP DP  RH WIND       PRES   REMARKS
HARRISBURG PA  CLEAR     31  28  89 CALM      29.85F
BALTIMORE      CLEAR     30  28  92 CALM      29.89F
ANNAPOLIS      CLEAR     40  37  89 CALM      29.90F
ANDREWS AFB    CLEAR     33  30  86 S6        29.89F
PHILADELPHIA   CLEAR     38  32  79 S6        29.91F
HENDERSON NC   CLOUDY    29  26  85 CALM      29.93F
GREENSBORO     PTCLDY    33  31  92 S7        29.92S
ROCKY MOUNT    PTCLDY    32  31  96 CALM      29.95S
$$

VAZ100-250800-
MARINE

STATION/POSITION TIME  TEMP    WIND        PRES    WAVE   SWELL
                       AIR SEA DIR/SP/G            HT/PER HT/PER
                 (UTC) (F)     (DEG/KT/KT) (MB)    (FT/S) (FT/S)
BRANDYWINE LGT   0624   47     270/  7/  8 1013.9
CAPE MAY NJ      0624   48 50  260/  5/  6 1013.0
LEWES DE         0624   40 51  250/  2/  2 1013.3
15NM E FENWICK I 0650   53 57  190/  6/  8 1013.6S   2/10   2/10
OCEAN-CITY-INLET 0624   43 53   CALM  /  2 1013.8
WACHAPREAGUE VA  0624   35 48  290/  1/  2 1013.3
THOMAS POINT MD  0700   46 51  200/ 12/ 14   N/A
GOOSES REEF MD   0650   47     220/ 10/ 12 1010.4S
COVE POINT MD    0624   44     210/  5/  7 1014.0
SOLOMONS ISLAND  0624   44 53  220/  5/  7 1013.1
BISHOPS HEAD MD  0624   47 47  180/  4/  4 1013.7
PINEY POINT MD   0624          250/  4/  5   N/A
POTOMAC MD       0650   46     210/  6/  8 1012.8F
CAMBRIDGE MD     0624   38 49              1014.1
LEWISETTA VA     0624   41 47  200/  4/  5 1013.4
RAPPAHANNOCK LGT 0624           CALM  /  2 1014.0
STINGRAY PT      0650   46     290/  4/  4 1013.7F
YORK RVR RNG VA  0624   46     320/  4/  5 1014.1
YORKTOWN VA      0624   42 53  290/  4/  5 1013.4
JAMESTOWN VA     0650           70/  2/  2   N/A
DOMINION TERM VA 0624   46     340/  1/  2 1013.6
KIPTOPEKE VA     0624      52   40/  1/  2   N/A
CAPE HENRY VA    0624   50     300/  6/  7   N/A
WILLOUBY STN VA  0624   47     350/  2/  3 1013.1
S CRANEY ISL VA  0624   44     290/  3/  4 1013.1
CAPE HENRY BUOY  0630      59                N/A     3/10   2/11
1ST LANDING BUOY 0650   50     360/  6/  6 1013.1F
CAPE CHARLES BUO 0651      58                N/A     3/10   2/11
64NM E OF VA BCH 0650   60 60   10/  6/  8 1012.6F   4/ 9   3/ 9
DUCK PIER NC     0624   51 56  340/  8/  9 1012.2
44100 DUCK FRF   0645      60                N/A     4/ 9   2/11
44056 DUCK FRF   0630      59                N/A     3/10   2/11
OREGON INLET NC  0624   58 56   10/  6/  7 1011.8
HATTERAS NC      0624   56 58   30/  6/  9 1011.3
DIAMOND SHLS NC  0650   67 71   20/ 12/ 14 1011.3S   6/10   5/10
CAPE LOOKOUT NC  0700          360/  9/ 10 1012.1F
$$



USA.gov is the U.S. government's official web portal to all federal, state and local government web resources and services.